COSMOS 1275 DEB, 12674

Orbit data source: Space-Track

COSMOS 1275 DEB, 12674 is space debris in LEO originally from a launch on Thu, 04 Jun 1981 UTC launched from the Plesetsk Missile And Space Complex (PKMTR). Debris objects in space refer to the collection of defunct objects orbiting the Earth. Examples of debris include non-operational satellites, rocket bodies, and fragments generated from explosions, collisions, or faulty payload assembly.

Loading next visibility...
Identifier
12674, 1981-053AE
Orbit
LEO
Last TLE update
7 hours ago
Origin
Manufacturer
Unknown
Mission
Spacecraft
Bus & Motor
Unknown
Mass
Unknown
Launch date (UTC)
1981-06-04 (44 years ago)
Launch vehicle
Unknown
Launch site
Plesetsk Missile And Space Complex (PKMTR)
Object type
Payload
Rocket body
Debris
Shape & HBR
Unknown
Radar Cross Section
Medium (>0.1 m² and <1 m²)

Expand to show TLE details & history

TLE from 7 hours ago
0 COSMOS 1275 DEB
1 12674U 81053AE  25128.97831987  .00000757  00000-0  75484-3 0  9997
2 12674  82.9335 306.0215 0101332  30.9764 123.4299 13.74567160184281
Epoch: 2025-05-08T23:28Z
Definitive object data (Epoch: 2025-05-08T23:28:46.836Z)
Latitude
24.4568°
Longitude
-96.43009°
Altitude
1,027.798 km
Speed
7.319 km/s
True Right ascension
08h 11m 13s
True Declination
24° 19' 56"
Sunlit
Object was in daylight at TLE epoch
Visualization TLE readout
Latitude
73.34262°
Longitude
110.92106°
Altitude
942.331 km
Speed
7.414 km/s
Apparent Right ascension
01h 02m 11s
Apparent Declination
25° 25' 50"
Sunlit
Object is in daylight
Visualization observer readout
Local Sidereal Time
14:13:25
Azimuth
17.402° NNE
Elevation
-22.579°
Doppler factor
1
Orbital elements
Apogee altitude
1,054.934 km
Perigee altitude
905.804 km
Semi-major axis
7,358.506 km
Eccentricity
0.0101332
Inclination
82.9335°
RAAN
306.0215°
Arg. of periapsis
30.9764°
True anomaly
124.39221°
Mean anomaly
123.4299°
Eccentric anomaly
123.91173°
Mean motion
3.43842 °/min
BSTAR
0.00075484
Orbital period
104.7 mins
Loading maneuver chart data...
Loading SW <> Apogee altitude chart data...
Loading historical data...
Loading historical data...
Loading historical data...
Loading historical data...
Loading historical data...
Loading historical data...
Loading historical data...

COSMOS 1275 DEB Visibility forecast

Observer location: undefined°, undefined°

Span
Click to sort rows by Start time (UTC) header in descending order
Start Az.
Max El. time (UTC)
Max El. Az.
Max El.
End time (UTC)
End Az.
6 mins2025-05-09 11:06:38.666Z111.359° ESE2025-05-09 11:09:38.666Z77.868° E15.336°2025-05-09 11:12:38.666Z46.654° ENE
10 mins2025-05-09 12:49:38.666Z200.15° SSW2025-05-09 12:54:38.666Z304.996° NW41.433°2025-05-09 12:59:38.666Z0.271° NNE
5 mins2025-05-09 22:03:38.666Z48.465° ENE2025-05-09 22:05:38.666Z69.456° E14.601°2025-05-09 22:08:38.666Z98.541° ESE
11 mins2025-05-09 23:46:38.666Z350.326° N2025-05-09 23:51:38.666Z272.639° WNW44.687°2025-05-09 23:57:38.666Z178.95° S
|